Weather History for Delaware, OH

Change the Weather History Date:

Tuesday, June 25, 2013

  Actual Average Record
Temperature  
Mean Temperature 78 °F -  
Max Temperature 89 °F 81 °F 96 °F (1943)
Min Temperature 68 °F 58 °F 41 °F (1979)
Cooling Degree Days 14    
Growing Degree Days 28 (Base 50)    
Moisture  
Dew Point 67 °F    
Average Humidity 70    
Maximum Humidity 88    
Minimum Humidity 49    
Precipitation  
Precipitation 0.00 in - - ()
Sea Level Pressure  
Sea Level Pressure 29.99 in    
Wind  
Wind Speed 7 mph (SW)    
Max Wind Speed 15 mph    
Max Gust Speed 23 mph    
Visibility 9 miles    
Events Thunderstorm    
Averages and records for this station are not official NWS values.
T = Trace of Precipitation, MM = Missing Value Source: NWS Daily Summary

Daily Weather History Graph

Daily Weather History Graph

Search for Another Location

Airport:

Trip Planner

Search our weather history database for the weather conditions in past years. The results will help you decide how hot, cold, wet, or windy it might be!

Date:

Astronomy

Jun. 25, 2013 Rise Set
Actual Time 6:04 AM EDT 9:06 PM EDT
Civil Twilight 5:30 AM EDT 9:39 PM EDT
Nautical Twilight 4:48 AM EDT 10:21 PM EDT
Astronomical Twilight 3:59 AM EDT 11:10 PM EDT
Moon 10:50 PM EDT (6/25) 8:43 AM EDT (6/25)
Length of Visible Light 16h 08m
Length of Day
15h 02m
Waning Gibbous, 93% of the Moon is Illuminated
Jun 25
Waning Gibbous
Jun 30
Last Quarter
Jul 8
New
Jul 15
First Quarter
Jul 22
Full

Hourly Weather History & Observations

Time (EDT) Temp. Heat Index Dew Point Humidity Pressure Visibility Wind Dir Wind Speed Gust Speed Precip Events Conditions
12:16 AM 71.6 °F - 66.2 °F 83% 30.09 in 10.0 mi SW 5.8 mph - N/A   Clear
12:36 AM 71.6 °F - 66.2 °F 83% 30.08 in 10.0 mi SW 4.6 mph - N/A   Clear
12:55 AM 71.6 °F - 66.2 °F 83% 30.06 in 10.0 mi SSE 4.6 mph - N/A   Clear
1:16 AM 71.6 °F - 66.2 °F 83% 30.04 in 10.0 mi South 5.8 mph - N/A   Clear
1:36 AM 71.6 °F - 66.2 °F 83% 30.02 in 10.0 mi South 6.9 mph - N/A   Clear
1:55 AM 71.6 °F - 66.2 °F 83% 30.01 in 10.0 mi South 6.9 mph - N/A   Clear
2:16 AM 71.6 °F - 66.2 °F 83% 30.00 in 10.0 mi South 6.9 mph - N/A   Clear
2:36 AM 71.6 °F - 66.2 °F 83% 30.02 in 10.0 mi SW 3.5 mph - N/A   Scattered Clouds
2:55 AM 71.6 °F - 66.2 °F 83% 30.03 in 7.0 mi SW 4.6 mph - N/A   Scattered Clouds
3:16 AM 69.8 °F - 66.2 °F 88% 30.03 in 7.0 mi SW 6.9 mph - N/A   Clear
3:36 AM 69.8 °F - 66.2 °F 88% 30.01 in 7.0 mi SSW 6.9 mph - N/A   Clear
3:56 AM 69.8 °F - 66.2 °F 88% 30.02 in 5.0 mi SW 6.9 mph - N/A   Clear
4:16 AM 69.8 °F - 66.2 °F 88% 30.02 in 5.0 mi SW 5.8 mph - N/A   Clear
4:35 AM 69.8 °F - 66.2 °F 88% 30.02 in 5.0 mi SSW 6.9 mph - N/A   Clear
4:56 AM 69.8 °F - 66.2 °F 88% 30.03 in 4.0 mi SSW 6.9 mph - N/A   Clear
5:16 AM 69.8 °F - 66.2 °F 88% 30.03 in 5.0 mi SSW 6.9 mph - N/A   Clear
5:35 AM 69.8 °F - 66.2 °F 88% 30.04 in 5.0 mi SW 6.9 mph - N/A   Clear
5:56 AM 69.8 °F - 66.2 °F 88% 30.04 in 5.0 mi SW 5.8 mph - N/A   Clear
6:16 AM 69.8 °F - 64.4 °F 83% 30.05 in 5.0 mi SW 6.9 mph - N/A   Clear
6:35 AM 69.8 °F - 64.4 °F 83% 30.04 in 4.0 mi SW 8.1 mph - N/A   Clear
6:56 AM 68.0 °F - 64.4 °F 88% 30.06 in 4.0 mi SW 5.8 mph - N/A   Clear
7:16 AM 69.8 °F - 66.2 °F 88% 30.06 in 4.0 mi WSW 4.6 mph - N/A   Clear
7:35 AM 69.8 °F - 64.4 °F 83% 30.06 in 5.0 mi WSW 5.8 mph - N/A   Haze
7:56 AM 71.6 °F - 66.2 °F 83% 30.06 in 7.0 mi WSW 6.9 mph - N/A   Clear
8:16 AM 71.6 °F - 64.4 °F 78% 30.06 in 7.0 mi WSW 3.5 mph - N/A   Clear
8:35 AM 73.4 °F - 64.4 °F 73% 30.07 in 7.0 mi WSW 6.9 mph - N/A   Clear
8:56 AM 75.2 °F - 66.2 °F 73% 30.06 in 10.0 mi West 5.8 mph - N/A   Clear
9:16 AM 77.0 °F - 66.2 °F 69% 30.06 in 10.0 mi WSW 5.8 mph - N/A   Clear
9:35 AM 78.8 °F - 64.4 °F 61% 30.06 in 10.0 mi SW 6.9 mph - N/A   Clear
9:56 AM 80.6 °F 82.7 °F 66.2 °F 61% 30.06 in 10.0 mi WSW 8.1 mph - N/A   Clear
10:16 AM 80.6 °F 83.2 °F 68.0 °F 65% 30.05 in 10.0 mi WSW 10.4 mph - N/A   Clear
10:35 AM 80.6 °F 83.2 °F 68.0 °F 65% 30.05 in 10.0 mi West 8.1 mph 17.3 mph N/A   Clear
10:56 AM 82.4 °F 85.4 °F 68.0 °F 62% 30.04 in 10.0 mi WSW 6.9 mph - N/A   Clear
11:16 AM 84.2 °F 87.3 °F 68.0 °F 58% 30.04 in 10.0 mi WSW 9.2 mph 16.1 mph N/A   Clear
11:35 AM 86.0 °F 90.4 °F 69.8 °F 58% 30.03 in 10.0 mi West 9.2 mph - N/A   Clear
11:56 AM 86.0 °F 89.4 °F 68.0 °F 55% 30.03 in 10.0 mi West 8.1 mph 17.3 mph N/A   Clear
12:16 PM 86.0 °F 89.4 °F 68.0 °F 55% 30.03 in 10.0 mi WSW 11.5 mph - N/A   Clear
12:35 PM 87.8 °F 91.4 °F 68.0 °F 52% 30.03 in 10.0 mi WSW 10.4 mph 16.1 mph N/A   Clear
12:56 PM 87.8 °F 91.4 °F 68.0 °F 52% 30.02 in 10.0 mi WSW 10.4 mph 21.9 mph N/A   Clear
1:16 PM 87.8 °F 91.4 °F 68.0 °F 52% 30.01 in 10.0 mi WSW 13.8 mph 19.6 mph N/A   Clear
1:36 PM 87.8 °F 91.4 °F 68.0 °F 52% 30.00 in 10.0 mi WSW 15.0 mph 23.0 mph N/A   Scattered Clouds
1:56 PM 89.6 °F 93.4 °F 68.0 °F 49% 29.99 in 7.0 mi WSW 10.4 mph 20.7 mph N/A   Scattered Clouds
2:16 PM 89.6 °F 93.4 °F 68.0 °F 49% 29.99 in 10.0 mi WSW 11.5 mph 23.0 mph N/A   Clear
2:36 PM 87.8 °F 91.4 °F 68.0 °F 52% 29.99 in 10.0 mi WSW 10.4 mph 19.6 mph N/A   Scattered Clouds
2:56 PM 86.0 °F 89.4 °F 68.0 °F 55% 29.98 in 10.0 mi WSW 11.5 mph 19.6 mph N/A   Clear
3:16 PM 86.0 °F 90.4 °F 69.8 °F 58% 29.97 in 10.0 mi SW 8.1 mph - N/A Thunderstorm Scattered Clouds
3:36 PM 87.8 °F 90.4 °F 66.2 °F 49% 29.95 in 10.0 mi WSW 11.5 mph 18.4 mph N/A   Scattered Clouds
3:56 PM 87.8 °F 90.4 °F 66.2 °F 49% 29.96 in 10.0 mi WSW 11.5 mph 18.4 mph N/A   Mostly Cloudy
4:15 PM 87.8 °F 91.4 °F 68.0 °F 52% 29.96 in 10.0 mi West 12.7 mph 23.0 mph N/A Thunderstorm Scattered Clouds
4:36 PM 86.0 °F 89.4 °F 68.0 °F 55% 29.96 in 10.0 mi West 11.5 mph 21.9 mph N/A   Scattered Clouds
4:56 PM 82.4 °F 85.4 °F 68.0 °F 62% 29.95 in 10.0 mi West 10.4 mph - N/A   Clear
5:15 PM 82.4 °F 85.4 °F 68.0 °F 62% 29.93 in 10.0 mi WSW 9.2 mph - N/A   Clear
5:36 PM 82.4 °F 84.6 °F 66.2 °F 58% 29.92 in 10.0 mi WSW 11.5 mph - N/A   Clear
5:56 PM 82.4 °F 85.4 °F 68.0 °F 62% 29.92 in 10.0 mi WSW 8.1 mph - N/A   Clear
6:15 PM 82.4 °F 85.4 °F 68.0 °F 62% 29.90 in 10.0 mi WSW 6.9 mph - N/A   Clear
6:36 PM 82.4 °F 85.4 °F 68.0 °F 62% 29.90 in 10.0 mi SW 6.9 mph - N/A   Clear
6:56 PM 84.2 °F 88.4 °F 69.8 °F 62% 29.90 in 10.0 mi SW 8.1 mph - N/A   Clear
7:15 PM 86.0 °F 89.4 °F 68.0 °F 55% 29.90 in 10.0 mi SW 10.4 mph - N/A   Scattered Clouds
7:36 PM 84.2 °F 87.3 °F 68.0 °F 58% 29.90 in 10.0 mi SW 6.9 mph - N/A   Clear
7:56 PM 84.2 °F 87.3 °F 68.0 °F 58% 29.91 in 10.0 mi SW 4.6 mph - N/A   Clear
8:15 PM 82.4 °F 86.3 °F 69.8 °F 66% 29.91 in 10.0 mi SW 6.9 mph - N/A   Clear
8:36 PM 82.4 °F 86.3 °F 69.8 °F 66% 29.91 in 10.0 mi SSW 4.6 mph - N/A   Scattered Clouds
8:56 PM 80.6 °F 83.9 °F 69.8 °F 70% 29.90 in 10.0 mi SSW 4.6 mph - N/A   Scattered Clouds
9:16 PM 80.6 °F 83.9 °F 69.8 °F 70% 29.90 in 10.0 mi SW 4.6 mph - N/A   Clear
9:36 PM 78.8 °F - 69.8 °F 74% 29.91 in 10.0 mi SW 4.6 mph - N/A   Clear
9:55 PM 78.8 °F - 69.8 °F 74% 29.91 in 10.0 mi SW 3.5 mph - N/A   Clear
10:16 PM 78.8 °F - 68.0 °F 69% 29.92 in 10.0 mi SW 4.6 mph - N/A   Clear
10:36 PM 78.8 °F - 68.0 °F 69% 29.92 in 10.0 mi SW 4.6 mph - N/A   Scattered Clouds
10:55 PM 78.8 °F - 68.0 °F 69% 29.92 in 10.0 mi SW 4.6 mph - N/A   Mostly Cloudy
11:16 PM 77.0 °F - 68.0 °F 74% 29.92 in 10.0 mi WSW 3.5 mph - N/A   Scattered Clouds
11:36 PM 77.0 °F - 68.0 °F 74% 29.91 in 10.0 mi SSW 4.6 mph - N/A   Clear
11:55 PM 75.2 °F - 68.0 °F 78% 29.92 in 10.0 mi SSW 4.6 mph - N/A   Clear